Regional Weather Roundup
Issued by NWS

Home | Current Version | Previous Version | Text Only | Print | Product List | Glossary Off
Versions: 1 2 3 4 5 6 7 8 9 10 11 12 13 14 15 16 17 18 19 20 21 22 23 24 25 26 27 28 29 30 31 32 33 34 35 36 37 38 39 40 41 42 43 44 45 46 47 48 49 50

844
ASUS43 KFSD 221102
RWRSD

WEATHER ROUNDUP FOR SOUTH DAKOTA
NATIONAL WEATHER SERVICE SIOUX FALLS SD
600 AM CDT FRI MAY 22 2015

NOTE: "FAIR" INDICATES FEW OR NO CLOUDS BELOW 12,000 FEET WITH NO
SIGNIFICANT WEATHER AND/OR OBSTRUCTIONS TO VISIBILITY.


SDZ001>005-009-010-012>017-221200-
NORTHWEST AND NORTH CENTRAL SOUTH DAKOTA

CITY           SKY/WX    TMP DP  RH WIND       PRES   REMARKS
BUFFALO          N/A     45  30  55 E9        30.04F
FAITH            N/A     47  30  51 SE14      30.12F
MOBRIDGE       CLEAR     43  39  86 CALM      30.13S
$$

SDZ012>016-024>037-041>051-057-063-072>074-221200-
SOUTHWEST AND SOUTH CENTRAL SOUTH DAKOTA

CITY           SKY/WX    TMP DP  RH WIND       PRES   REMARKS
RAPID CTY ARPT CLOUDY    49  45  86 SE6       30.10S
PIERRE         CLEAR     40  35  83 E3        30.15R
CUSTER         CLOUDY    44  40  85 S5        30.12F
ELLSWORTH AFB  CLOUDY    49  46  88 SE7       30.09F
PHILIP         PTCLDY    45  36  70 E5        30.13S
PINE RIDGE     CLOUDY    51  42  71 SE10      30.10F
WINNER         FAIR      48  35  60 SW3       30.16S
$$

SDZ004>011-016>023-039-040-221200-
NORTHEAST SOUTH DAKOTA

CITY           SKY/WX    TMP DP  RH WIND       PRES   REMARKS
ABERDEEN       CLEAR     45  38  76 E6        30.17S
WATERTOWN      CLEAR     43  37  79 CALM      30.18S
BROOKINGS      CLEAR     43  37  81 CALM      30.20S
$$

SDZ017-020-022-023-036>040-048>070-221200-
SOUTHEAST SOUTH DAKOTA

CITY           SKY/WX    TMP DP  RH WIND       PRES   REMARKS
SIOUX FALLS    PTCLDY    41  40  96 CALM      30.18S
HURON          CLEAR     43  40  89 VRB3      30.17R
CHAMBERLAIN    CLEAR     41  37  86 CALM      30.17S
MITCHELL       CLEAR     45  39  79 S3        30.18R
YANKTON        CLEAR     45  37  76 CALM      30.19R
$$

ABBREVIATIONS USED IN REMARKS
   TC - TEMPERATURE IN CELSIUS
  WCI - WIND CHILL INDEX
   HX - HEAT INDEX
  VSB - VISIBILITY




USA.gov is the U.S. government's official web portal to all federal, state and local government web resources and services.